Location: Dillon
(41.1766°N, 107.0923°W)
Time: 08:50:34
(UTC+00:00)

QB50P2 - Pass Details

Date: 28 June 2022
Orbit: 590 x 605 km, 97.9° (Epoch: 09 August)

Event Time Altitude Azimuth Distance (km) Brightness Sun altitude
Rises 09:13:58 0° 2° (N) 2,855 ? -19.6°
Reaches altitude 10° 09:16:19 10° 352° (N) 1,950 ? -19.4°
Maximum altitude 09:20:03 31° 290° (WNW) 1,060 ? -19.0°
Enters shadow 09:21:01 28° 264° (W) 1,141 ? -18.9°
